Regional Weather Roundup
Issued by NWS Goodland, KS

Home | Current Version | Previous Version | Text Only | Print | Product List | Glossary Off
Versions: 1 2 3 4 5 6 7 8 9 10 11 12 13 14 15 16 17 18 19 20 21 22 23 24 25 26 27 28 29 30 31 32 33 34 35 36 37 38 39 40 41 42 43 44 45 46 47 48 49 50

000
ASUS43 KGLD 261159
RWRGLD

GOODLAND FORECAST AREA HOURLY WEATHER ROUNDUP
NATIONAL WEATHER SERVICE GOODLAND KS
600 AM MDT TUE SEP 26 2017

...OFFICIAL OBSERVATIONS...

CITY           SKY/WX    TMP DP  RH WIND       PRES   REMARKS
GOODLAND KS    CLOUDY    46  45  96 N6        30.16S
HILL CITY KS   PTCLDY    49  48  97 NW3       30.15R
IMPERIAL NEB   CLOUDY    45  42  89 N3        30.16R
MCCOOK NEB     PTCLDY    44  44 100 NW5       30.16R
AKRON CO       CLEAR     38  36  92 SW6       30.16R
BURLINGTON CO  CLOUDY    45  45 100 NW5       30.17R FOG
LIMON CO         N/A    N/A N/A N/A MISG      30.18R
$$

...UNOFFICIAL OBSERVATIONS...

CITY           SKY/WX    TMP DP  RH WIND       PRES   REMARKS
LENORA KS        N/A     46  32  58 MISG        N/A
NORTON KS      PTCLDY    45  43  93 W5        30.14R
SHARON SPRINGS   N/A     47  46  96 N5          N/A
KIT CARSON CO    N/A     42  40  91 MISG        N/A
YUMA CO        FOG       41  41 100 SW6       30.16S VSB 1/4
$$



USA.gov is the U.S. government's official web portal to all federal, state and local government web resources and services.